Weather Roundup
Issued by NWS

Home | Current Version | Previous Version | Text Only | Print | Product List | Glossary On
Versions: 1 2 3 4 5 6 7 8 9 10 11 12 13 14 15 16 17 18 19 20 21 22 23 24 25 26 27 28 29 30 31 32 33 34 35 36 37 38 39 40 41 42 43 44 45 46 47 48 49 50
000
NZUS93 KARX 280559
HRRWXR

CURRENT HOURLY OBSERVATIONS ACROSS
MUCH OF THE UPPER MISSISSIPPI VALLEY
NATIONAL WEATHER SERVICE LA CROSSE WI
100 AM CDT TUE JUL 28 2015


...SOUTHEAST MINNESOTA...


CITY           SKY/WX    TMP DP  RH WIND       PRES   REMARKS
ROCHESTER      CLEAR     71  69  93 SE8       29.96F FOG
ROCHESTER/MAYO FAIR      73  72  98 SE6       29.95S
WINONA         CLEAR     73  70  88 SE5       29.95F
AUSTIN         CLEAR     73  72  94 SE5       29.94S
ALBERT LEA     PTCLDY    73  72  94 S8        29.92F
DODGE CENTER   CLEAR     72  70  94 SE7       29.95S FOG
PRESTON        CLEAR     71  68  90 SE5       29.98F
OWATONNA       CLEAR     75  72  88 SE9       29.91F
FARIBAULT      NOT AVBL
$$

...ELSEWHERE IN MINNESOTA...


CITY           SKY/WX    TMP DP  RH WIND       PRES   REMARKS
MINNEAPOLIS    PTCLDY    76  71  85 SE10      29.89F
INTNL FALLS    CLEAR     73  66  78 SE6       29.87F
DULUTH         MOCLDY    74  64  71 SE7       29.95F
RED WING       CLEAR     75  70  83 SE6       29.92S
REDWOOD FALLS  PTCLDY    73  67  81 SE14      29.83F
MANKATO        CLEAR     73  70  88 SE14G20   29.88F
WORTHINGTON    CLOUDY    72  64  78 SE12G21   29.84F
FAIRMONT       CLEAR     72  63  73 SE12      29.88F
$$

...SOUTHWEST WISCONSIN...


CITY           SKY/WX    TMP DP  RH WIND       PRES   REMARKS
LA CROSSE      CLEAR     73  69  87 E8        29.95F
PRAIRIE DU CHI CLEAR     73  69  86 CALM      29.96S
BOSCOBEL       CLEAR     72  68  87 N3        29.98R
LONE ROCK      NOT AVBL
PLATTEVILLE    CLEAR     71  67  87 E7        29.99R
FORT MC COY    CLEAR     69  66  90 CALM      29.99S
VIROQUA        FAIR      70  70 100 E5        30.01R
WIS DELLS      CLEAR     71  61  71 SE6       30.02R
$$

...ELSEWHERE IN WISCONSIN...


CITY           SKY/WX    TMP DP  RH WIND       PRES   REMARKS
MILWAUKEE      PTCLDY    70  64  81 CALM      30.02R
MADISON        CLEAR     69  62  78 CALM      30.01R
GREEN BAY      CLEAR     63  60  90 CALM      30.03S FOG
EAU CLAIRE     NOT AVBL
BLACK RVR FLS  FAIR      66  66 100 CALM      29.97F
MEDFORD        CLEAR     67  63  85 SE3       30.03S
WAUSAU         CLEAR     68  63  84 SE5       30.02R
WIS RAPIDS     CLEAR     70  61  73 SE5       30.03R
MARSHFIELD     CLEAR     70  60  70 S6        30.02S
RICE LAKE      CLEAR     72  67  84 SE6       29.98S
$$

...NORTHEAST IOWA...


CITY           SKY/WX    TMP DP  RH WIND       PRES   REMARKS
DECORAH        CLEAR     72  70  94 SE6       29.97S
MASON CITY     CLEAR     71  70  96 SE9       29.94F
CHARLES CITY   CLEAR     72  72 100 SE7       29.96S
OELWEIN          N/A     72  72 100 SE5       29.97S
$$

...ELSEWHERE IN IOWA...


CITY           SKY/WX    TMP DP  RH WIND       PRES   REMARKS
DES MOINES     PTCLDY    74  69  85 SE6       29.90F
IOWA CITY      PTCLDY    73  71  93 E3        29.96R
FORT DODGE     PTCLDY    70  66  88 SE6       29.91F
$$

...NORTHERN ILLINOIS...


CITY           SKY/WX    TMP DP  RH WIND       PRES   REMARKS
CHICAGO-OHARE  MOCLDY    74  67  78 E6        29.99F
CHICAGO-MIDWAY CLOUDY    76  66  71 E6        29.98F
MOLINE         CLEAR     73  69  87 CALM      29.95R
ROCKFORD       PTCLDY    71  63  75 E5        30.02R
PEORIA         MOCLDY    78  71  79 E5        29.95S
$$

NOTE: "FAIR" INDICATES FEW OR NO CLOUDS BELOW 12,000 FEET WITH NO
SIGNIFICANT WEATHER AND/OR OBSTRUCTIONS TO VISIBILITY. WIND
SPEEDS ARE IN MILES-PER-HOUR.



USA.gov is the U.S. government's official web portal to all federal, state and local government web resources and services.